San Antonio, TX

12:34 PM CDT on July 22, 2017 (GMT -0500)
San Antonio International

Weather History for KSAT - June, 2012

Change the Weather History Date:

Wednesday, June 27, 2012

  Actual Average Record
Temperature  
Mean Temperature 90 °F 84 °F  
Max Temperature 102 °F 93 °F 105 °F (1980)
Min Temperature 78 °F 74 °F 58 °F (1974)
Degree Days  
Heating Degree Days 0 0  
Month to date heating degree days 0 0  
Since 1 June heating degree days 0 0  
Since 1 July heating degree days 1130 1496  
Cooling Degree Days 25 19  
Month to date cooling degree days 536 467  
Year to date cooling degree days 1392 1096  
Since 1 June cooling degree days 536 467  
Growing Degree Days 40 (Base 50)    
Moisture  
Dew Point 65 °F    
Average Humidity 48    
Maximum Humidity 67    
Minimum Humidity 29    
Precipitation  
Precipitation 0.00 in 0.12 in 1.74 in (1886)
Month to date precipitation 0.11 3.79  
Year to date precipitation 22.85 15.76  
Snow  
Snow 0.00 in - - ()
Month to date snowfall 0.0  
Since 1 June snowfall 0.0  
Since 1 July snowfall T  
Snow Depth 0.00 in    
Sea Level Pressure  
Sea Level Pressure 29.82 in    
Wind  
Wind Speed 6 mph (SE)    
Max Wind Speed 22 mph    
Max Gust Speed 24 mph    
Visibility 10 miles    
Events      
T = Trace of Precipitation, MM = Missing Value Source: NWS Daily Summary

Daily Weather History Graph

Daily Weather History Graph

Search for Another Location

Airport or City:

Trip Planner

Search our weather history database for the weather conditions in past years. The results will help you decide how hot, cold, wet, or windy it might be!

Date:

Astronomy

Jun. 27, 2012 Rise Set
Actual Time 6:36 AM CDT 8:37 PM CDT
Civil Twilight 6:09 AM CDT 9:05 PM CDT
Nautical Twilight 5:35 AM CDT 9:38 PM CDT
Astronomical Twilight 5:00 AM CDT 10:13 PM CDT
Moon 2:21 PM CDT (6/27) 1:15 AM CDT (6/27)
Length of Visible Light 14h 56m
Length of Day
14h 01m
First Quarter, 56% of the Moon is Illuminated
Jun 27
First Quarter
Jul 3
Full
Jul 10
Last Quarter
Jul 18
New
Jul 26
First Quarter

Hourly Weather History & Observations

Time (CDT) Temp. Heat Index Dew Point Humidity Pressure Visibility Wind Dir Wind Speed Gust Speed Precip Events Conditions
12:53 AM 84.0 °F 86.5 °F 66.9 °F 56% 29.75 in 10.0 mi NNW 4.6 mph - N/A   Scattered Clouds
1:53 AM 84.9 °F 87.6 °F 66.9 °F 55% 29.74 in 10.0 mi Calm Calm - N/A   Mostly Cloudy
2:53 AM 82.0 °F 84.5 °F 66.9 °F 60% 29.74 in 10.0 mi Calm Calm - N/A   Scattered Clouds
3:53 AM 82.9 °F 85.4 °F 66.9 °F 58% 29.75 in 10.0 mi Calm Calm - N/A   Scattered Clouds
4:53 AM 82.0 °F 84.5 °F 66.9 °F 60% 29.76 in 10.0 mi Calm Calm - N/A   Mostly Cloudy
5:53 AM 80.1 °F 82.7 °F 68.0 °F 67% 29.78 in 10.0 mi Calm Calm - N/A   Partly Cloudy
6:53 AM 80.1 °F 82.3 °F 66.9 °F 64% 29.80 in 9.0 mi Calm Calm - N/A   Scattered Clouds
7:53 AM 82.9 °F 85.8 °F 68.0 °F 60% 29.82 in 8.0 mi Calm Calm - N/A   Scattered Clouds
8:53 AM 87.1 °F 91.3 °F 69.1 °F 55% 29.83 in 9.0 mi ENE 3.5 mph - N/A   Scattered Clouds
9:53 AM 91.0 °F 94.3 °F 66.9 °F 45% 29.85 in 10.0 mi ESE 5.8 mph - N/A   Scattered Clouds
10:53 AM 93.0 °F 95.9 °F 66.0 °F 41% 29.86 in 10.0 mi South 3.5 mph - N/A   Scattered Clouds
11:53 AM 97.0 °F 99.3 °F 64.0 °F 34% 29.86 in 10.0 mi SE 8.1 mph - N/A   Scattered Clouds
12:53 PM 100.0 °F 103.6 °F 64.9 °F 32% 29.86 in 10.0 mi South 9.2 mph - N/A   Scattered Clouds
1:53 PM 99.0 °F 102.3 °F 64.9 °F 33% 29.85 in 10.0 mi SE 5.8 mph - N/A   Scattered Clouds
2:53 PM 100.0 °F 104.2 °F 66.0 °F 33% 29.83 in 10.0 mi Variable 6.9 mph 16.1 mph N/A   Scattered Clouds
3:53 PM 100.9 °F 104.0 °F 64.0 °F 30% 29.83 in 10.0 mi SE 8.1 mph - N/A   Scattered Clouds
4:53 PM 99.0 °F 100.5 °F 63.0 °F 30% 29.81 in 10.0 mi SSE 8.1 mph - N/A   Scattered Clouds
5:53 PM 100.0 °F 101.8 °F 63.0 °F 29% 29.80 in 10.0 mi SE 6.9 mph - N/A   Scattered Clouds
6:53 PM 100.0 °F 103.0 °F 64.0 °F 31% 29.80 in 10.0 mi SE 11.5 mph 17.3 mph N/A   Scattered Clouds
7:53 PM 96.1 °F 97.3 °F 63.0 °F 33% 29.81 in 10.0 mi SE 15.0 mph 21.9 mph N/A   Scattered Clouds
8:53 PM 95.0 °F 96.0 °F 63.0 °F 34% 29.82 in 10.0 mi ESE 15.0 mph - N/A   Partly Cloudy
9:53 PM 91.0 °F 92.6 °F 64.0 °F 41% 29.86 in 10.0 mi SE 15.0 mph - N/A   Clear
10:53 PM 89.1 °F 90.3 °F 64.0 °F 43% 29.88 in 10.0 mi SE 16.1 mph - N/A   Clear
11:53 PM 86.0 °F 87.3 °F 64.0 °F 48% 29.90 in 10.0 mi SE 9.2 mph - N/A   Clear